Regional Weather Roundup
Issued by NWS Midland/Odessa, TX

Skip options and go directly to product.
Home | Oldest Version | Previous Version | Current Version | All | Text Only | Save Text | Print | Product List | Glossary On

Skip product version selection by date and time.   
560
ASUS44 KMAF 282210
RWRMAF
MIDLAND AREA WEATHER ROUNDUP
NATIONAL WEATHER SERVICE MIDLAND TX
500 PM CDT MON JUL 28 2014

...IN SOUTHWEST TEXAS AND SOUTHEAST NEW MEXICO...

CITY           SKY/WX    TMP DP  RH WIND       PRES   REMARKS
ALPINE         PTSUNNY   91  55  29 E15       30.26F
ANDREWS        PTSUNNY   91  60  34 E14G30    30.18F
ARTESIA        PTSUNNY   91  55  29 E10G16    30.18F
BIG SPRING     MOSUNNY   94  62  33 NE22      30.17F
CARLSBAD       MOSUNNY   96  52  22 E13       30.14F
DRYDEN           N/A    101  54  20 E13G23    30.08F
FORT STOCKTON  MOSUNNY   97  54  23 E10G24    30.13F
GUAD PASS      MOSUNNY   85  54  34 E21G26    30.31F
HOBBS          PTSUNNY   91  57  31 NE14      30.23F
MARFA          MOSUNNY   90  55  31 NE14      30.25F
MIDLAND AIRPK  MOSUNNY   95  60  30 E13       30.15F
MIDLAND INTL   MOSUNNY   94  61  33 E17G24    30.14F
ODESSA         MOSUNNY   94  56  27 E14       30.15F
PECOS          MOSUNNY   97  52  22 SE8G17    30.09F
PRESIDIO       FAIR      99  58  25 N16       30.04F THUNDER
SEMINOLE       PTSUNNY   90  57  32 E14G21    30.21F
SNYDER         PTSUNNY   88  66  48 E18G28    30.19S
WINK           MOSUNNY   98  52  21 E12       30.09F
$$
...OTHER STATIONS IN TEXAS...

CITY           SKY/WX    TMP DP  RH WIND       PRES   REMARKS
ABILENE        CLOUDY    90  65  43 E17       30.16S
AMARILLO       PTSUNNY   77  63  61 SE13G18   30.31F
AUSTIN         MOSUNNY  100  63  29 NW5       30.03F HX 102
BROWNSVILLE    SUNNY     93  74  53 SE18G25   30.03F HX 103
CORPUS CHRISTI MOSUNNY   95  72  47 SE15      30.03F HX 103
DALLAS FTW     PTSUNNY   92  58  31 N17       30.10F
DEL RIO        SUNNY     99  62  29 E12       30.02F HX 100
EL PASO        PTSUNNY   93  57  29 E13G23    30.16F
HOUSTON INT    PTSUNNY   97  65  34 VRB3      30.02F
LUBBOCK        CLOUDY    84  65  52 E14       30.24F
SAN ANGELO     MOSUNNY   99  58  25 E13       30.09F
SAN ANTONIO    MOSUNNY   96  63  33 VRB7      30.06F
WACO           PTSUNNY   83  70  64 N13       30.07R
WICHITA FALLS  NOT AVBL
$$
...OTHER LOCATIONS IN NEW MEXICO...

CITY           SKY/WX    TMP DP  RH WIND       PRES   REMARKS
ALAMAGORDO     MOSUNNY   86  59  39 NW7       30.22F
ALBUQUERQUE    MOSUNNY   85  50  29 SW13      30.30F
CANNON AFB     PTSUNNY   81  62  52 E14       30.29F
CLOVIS         MOSUNNY   81  61  50 E14       30.32
HOLLOMAN AFB   MOSUNNY   87  59  39 NW8       30.21F
ROSWELL        PTSUNNY   91  56  30 SE12      30.20F
RUIDOSO        TSTM      66  57  72 S13       30.47F
SANTA FE       MOSUNNY   78  52  40 S10       30.37F
TRUTH OR CONSE MOSUNNY   86  52  30 VRB7      30.24F
TUCUMCARI      MOSUNNY   87  61  41 SE9G21    30.25F
$$

USA.gov is the U.S. government's official web portal to all federal, state and local government web resources and services.